[[{"header":{"parameterUnit":"m.s-1","parameterCategory":1,"la1":30.2991,"la2":30.254,"lo1":-89.0895,"lo2":-89.0444,"dy":0.0017,"dx":0.0017,"nx":28,"ny":28,"refTime":"2023-09-01T21:00:00:Z","depth":0,"parameterNumber":2,"parameterNumberName":"U-component_of_WINDS"},"data":[0,0,0,0,0,0,0,0,0,0,0,0,0,0,0,0,0,0,0,0,0,0,0,0,0,0,0,0,0,0,0,0,0,0,0,0,0,0,0,0,0,0,0,0,0,0,0,0,0,0,0,0,0,0,0,0,0,0,-3.4979,-3.4978,0,-3.4894,-3.4893,-3.4892,-3.484,-3.484,-3.484,-3.484,-3.4746,-3.4743,-3.4741,0,0,0,0,0,0,0,0,0,0,0,0,0,-3.5089,-3.5088,-3.4979,-3.4978,-3.4977,-3.4895,-3.4893,-3.4892,-3.484,-3.484,-3.484,-3.484,-3.4746,-3.4744,-3.4741,0,0,0,0,0,0,0,0,0,0,0,0,0,-3.5027,-3.5087,-3.4979,-3.4941,-3.4937,-3.4895,-3.4893,-3.4892,-3.484,-3.484,-3.484,-3.4839,-3.4747,-3.4744,-3.474,-3.4727,0,0,-3.473,-3.4729,0,0,0,0,0,0,0,0,-3.503,-3.5023,-3.4948,-3.4944,-3.4939,-3.4878,-3.4898,-3.4836,-3.4841,-3.4877,-3.484,-3.4839,-3.4789,-3.4782,-3.4767,-3.4723,-3.4718,-3.473,-3.4728,-3.4726,-3.4725,0,0,0,0,0,0,0,-3.5035,-3.5026,-3.4945,-3.4947,-3.4941,-3.4926,-3.4917,-3.4886,-3.4836,-3.4874,-3.487,-3.4861,-3.4787,-3.4771,-3.4765,-3.4717,-3.473,-3.4727,-3.4725,-3.4723,-3.4657,-3.4657,0,0,0,0,0,0,-3.5046,-3.503,-3.4948,-3.4943,-3.4985,-3.4925,-3.4914,-3.4898,-3.4836,-3.4827,-3.4861,-3.4859,-3.4777,-3.4769,-3.4761,-3.4741,-3.4726,-3.4723,-3.4721,-3.4656,-3.4657,-3.4657,0,0,0,0,0,0,-3.5049,-3.5039,-3.4951,-3.4985,-3.4973,-3.4923,-3.4905,-3.4896,-3.488,-3.4827,-3.4817,-3.4854,-3.4776,-3.4766,-3.4736,-3.4737,-3.4722,-3.4718,-3.4656,-3.4657,-3.4657,-3.47,0,0,0,0,0,0,-3.5052,-3.504,-3.5036,-3.4986,-3.4971,-3.493,-3.4905,-3.4895,-3.4875,-3.4871,-3.4818,-3.4808,-3.4775,-3.4742,-3.4733,-3.4732,-3.4716,-3.4656,-3.4656,-3.4657,-3.4698,-3.4702,-3.4705,0,0,0,0,0,-3.5056,-3.505,-3.5036,-3.5027,-3.4965,-3.493,-3.4922,-3.4885,-3.4875,-3.487,-3.4836,-3.481,-3.4739,-3.4739,-3.4729,-3.4726,-3.4655,-3.4656,-3.4657,-3.4697,-3.4701,-3.4705,0,0,0,0,0,0,-3.5099,-3.5043,-3.5027,-3.5005,-3.4973,-3.4922,-3.4913,-3.4891,-3.486,-3.4857,-3.4811,-3.4799,-3.4774,-3.4747,-3.4749,-3.471,-3.4694,-3.4693,-3.4728,-3.4732,-3.4735,-3.4741,-3.4713,0,0,0,0,0,-3.5107,-3.5085,-3.5036,-3.5021,-3.5006,-3.4963,-3.4946,-3.4921,-3.4885,-3.4871,-3.4835,-3.4799,-3.4768,-3.4749,-3.4718,-3.4695,-3.4682,-3.4688,-3.4692,-3.4695,-3.4693,-3.4679,-3.4681,-3.4659,-3.4659,-3.4659,0,0,-3.512,-3.5087,-3.5075,-3.5029,-3.5001,-3.4978,-3.4952,-3.4928,-3.4909,-3.4866,-3.4837,-3.4809,-3.4766,-3.474,-3.4727,-3.4717,-3.4697,-3.4696,-3.4698,-3.4695,-3.468,-3.4682,-3.4684,-3.4659,-3.4659,-3.4659,0,0,-3.5134,-3.5107,-3.5092,-3.5066,-3.5025,-3.4997,-3.4993,-3.4946,-3.4927,-3.4897,-3.4864,-3.4841,-3.4789,-3.476,-3.4738,-3.4743,-3.4717,-3.4734,-3.475,-3.4736,-3.4738,-3.4739,-3.474,-3.4741,-3.4733,-3.4733,-3.4733,0,-3.5155,-3.5121,-3.5086,-3.5065,-3.5045,-3.5008,-3.4991,-3.4966,-3.4917,-3.4903,-3.4894,-3.4829,-3.4798,-3.4764,-3.4766,-3.475,-3.4743,-3.4738,-3.4741,-3.4742,-3.4743,-3.4742,-3.4743,-3.4735,-3.4735,-3.4735,-3.4735,0,-3.5149,-3.5126,-3.5118,-3.5074,-3.5053,-3.5034,-3.4995,-3.4977,-3.4955,-3.4927,-3.4897,-3.4858,-3.4819,-3.4809,-3.4785,-3.4772,-3.4767,-3.4751,-3.4733,-3.4748,-3.4746,-3.4746,-3.4738,-3.4738,-3.4737,-3.4736,0,0,-3.5185,-3.5124,-3.5122,-3.5101,-3.5055,-3.5035,-3.5014,-3.4979,-3.4964,-3.4932,-3.4911,-3.487,-3.4855,-3.483,-3.4803,-3.4791,-3.4796,-3.4776,-3.4774,-3.478,-3.4778,-3.479,-3.479,-3.4781,-3.478,-3.478,-3.4781,0,-3.519,-3.5153,-3.5122,-3.5095,-3.5072,-3.5038,-3.502,-3.4988,-3.4962,-3.4937,-3.4907,-3.4878,-3.486,-3.4845,-3.4832,-3.4799,-3.4795,-3.4798,-3.4759,-3.4758,-3.4769,-3.479,-3.4802,-3.4804,-3.478,-3.478,-3.478,0,-3.5191,-3.5163,-3.5135,-3.5092,-3.5081,-3.5065,-3.503,-3.5008,-3.4971,-3.4953,-3.4927,-3.4899,-3.4874,-3.4861,-3.4824,-3.4827,-3.4809,-3.479,-3.4789,-3.4782,-3.4769,-3.4782,-3.4804,-3.4804,-3.4779,-3.4779,-3.478,0,-3.5219,-3.5174,-3.5151,-3.5135,-3.5084,-3.5074,-3.5052,-3.5015,-3.4996,-3.4965,-3.4951,-3.4917,-3.4897,-3.487,-3.4833,-3.4827,-3.4799,-3.4784,-3.4781,-3.4782,-3.4775,-3.4776,-3.4793,-3.4767,-3.4767,-3.4767,-3.4767,0,-3.5227,-3.5211,-3.5163,-3.5149,-3.513,-3.5093,-3.5074,-3.5049,-3.5017,-3.4996,-3.4964,-3.4944,-3.4898,-3.4872,-3.4843,-3.4816,-3.4808,-3.4791,-3.4783,-3.4793,-3.4795,-3.4779,-3.4777,-3.4767,-3.4767,-3.4767,-3.4767,0,-3.5254,-3.5221,-3.5194,-3.515,-3.5138,-3.5126,-3.5086,-3.507,-3.5043,-3.5017,-3.5008,-3.4965,-3.4933,-3.4895,-3.485,-3.483,-3.4805,-3.4795,-3.4819,-3.4814,-3.4813,-3.4813,-3.482,-3.4818,-3.4795,-3.4795,-3.4795,0,-3.526,-3.5248,-3.5202,-3.5188,-3.5167,-3.5143,-3.5124,-3.5088,-3.5069,-3.5027,-3.5016,-3.4982,-3.4953,-3.4904,-3.4866,-3.4832,-3.4819,-3.4824,-3.4813,-3.4824,-3.4817,-3.4818,-3.4816,-3.4826,-3.4826,-3.4827,-3.4827,0,-3.5275,-3.526,-3.5235,-3.5205,-3.5184,-3.5157,-3.5129,-3.5118,-3.5076,-3.5056,-3.5025,-3.5003,-3.4958,-3.4925,-3.4886,-3.486,-3.4836,-3.4831,-3.4828,-3.4837,-3.4851,-3.4842,-3.4824,-3.483,-3.483,-3.483,-3.483,-3.4829,-3.5291,-3.5278,-3.5245,-3.5218,-3.5194,-3.5169,-3.5152,-3.5124,-3.5098,-3.5061,-3.5041,-3.501,-3.4973,-3.4919,-3.4895,-3.4868,-3.4859,-3.4856,-3.4854,-3.4854,-3.4856,-3.4858,-3.4861,-3.4861,-3.4861,-3.4861,-3.486,0,-3.5303,-3.5281,-3.5257,-3.522,-3.5199,-3.5181,-3.5149,-3.5132,-3.5106,-3.5075,-3.5049,-3.5012,-3.498,-3.4941,-3.4906,-3.4892,-3.488,-3.4884,-3.4884,-3.4878,-3.4867,-3.4872,-3.4895,-3.4895,-3.4895,-3.4895,-3.4895,-3.4895,-3.5307,-3.5284,-3.5266,-3.523,-3.5207,-3.5178,-3.5162,-3.5138,-3.5113,-3.5075,-3.5049,-3.5026,-3.4991,-3.4953,-3.4922,-3.4911,-3.4899,-3.4906,-3.4892,-3.4882,-3.4879,-3.4876,-3.4881,-3.4904,-3.4904,-3.4905,-3.4905,-3.4905]},{"header":{"parameterUnit":"m.s-1","parameterCategory":1,"la1":30.2991,"la2":30.254,"lo1":-89.0895,"lo2":-89.0444,"dy":0.0017,"dx":0.0017,"nx":28,"ny":28,"refTime":"2023-09-01T21:00:00:Z","depth":0,"parameterNumber":3,"parameterNumberName":"V-component_of_WINDS"},"data":[0,0,0,0,0,0,0,0,0,0,0,0,0,0,0,0,0,0,0,0,0,0,0,0,0,0,0,0,0,0,0,0,0,0,0,0,0,0,0,0,0,0,0,0,0,0,0,0,0,0,0,0,0,0,0,0,0,0,3.7547,3.7549,0,3.7735,3.7737,3.774,3.7835,3.7835,3.7835,3.7836,3.8026,3.8031,3.8036,0,0,0,0,0,0,0,0,0,0,0,0,0,3.7267,3.7271,3.7546,3.7549,3.7551,3.7735,3.7738,3.774,3.7835,3.7835,3.7835,3.7836,3.8024,3.803,3.8036,0,0,0,0,0,0,0,0,0,0,0,0,0,3.7415,3.7273,3.7546,3.7621,3.763,3.7734,3.7738,3.7741,3.7835,3.7835,3.7835,3.7836,3.8022,3.803,3.8037,3.8081,0,0,3.806,3.8063,0,0,0,0,0,0,0,0,3.7406,3.7425,3.7608,3.7616,3.7626,3.7762,3.7709,3.7855,3.7835,3.7757,3.7836,3.7836,3.7938,3.7952,3.7987,3.809,3.8098,3.8061,3.8065,3.8068,3.8071,0,0,0,0,0,0,0,3.7396,3.7418,3.7621,3.761,3.7621,3.7644,3.7666,3.7737,3.7844,3.7764,3.7771,3.7792,3.7943,3.798,3.7993,3.8101,3.8061,3.8067,3.8072,3.8075,3.8251,3.8251,0,0,0,0,0,0,3.7374,3.7408,3.7615,3.7627,3.7514,3.7649,3.7673,3.7718,3.7844,3.7863,3.7792,3.7796,3.7967,3.7984,3.8,3.8061,3.8068,3.8075,3.808,3.8251,3.8251,3.8251,0,0,0,0,0,0,3.7368,3.7392,3.7608,3.752,3.7549,3.7654,3.7704,3.7722,3.7759,3.7865,3.7885,3.781,3.7968,3.7989,3.8061,3.8069,3.8079,3.8086,3.825,3.8251,3.8251,3.8182,0,0,0,0,0,0,3.7359,3.7389,3.7407,3.7519,3.7553,3.7666,3.7704,3.7725,3.7772,3.7779,3.7888,3.7906,3.797,3.8049,3.8068,3.8079,3.8092,3.825,3.8251,3.8251,3.8184,3.818,3.8177,0,0,0,0,0,3.7349,3.7379,3.7407,3.7432,3.7578,3.7666,3.7685,3.7759,3.7772,3.7791,3.786,3.7902,3.8064,3.8056,3.8078,3.8091,3.825,3.825,3.8251,3.8186,3.8181,3.8177,0,0,0,0,0,0,3.7264,3.7395,3.7428,3.7496,3.7569,3.7682,3.7708,3.7751,3.7822,3.7825,3.7913,3.7936,3.8,3.8053,3.804,3.8141,3.8162,3.8166,3.8105,3.8101,3.8097,3.8083,3.8098,0,0,0,0,0,3.7253,3.7314,3.7425,3.7474,3.7509,3.7602,3.7643,3.7694,3.7773,3.7804,3.7878,3.7952,3.8021,3.8063,3.8132,3.8192,3.8218,3.8212,3.8208,3.8205,3.8208,3.8245,3.8245,3.8252,3.8252,3.8252,0,0,3.7231,3.731,3.7343,3.7459,3.7522,3.7583,3.7628,3.769,3.7736,3.7813,3.7886,3.7943,3.8032,3.8098,3.8131,3.8144,3.8212,3.8205,3.8202,3.8207,3.8246,3.8245,3.8244,3.8253,3.8253,3.8253,0,0,3.7222,3.7288,3.7337,3.7399,3.7494,3.7556,3.7567,3.7675,3.7716,3.779,3.785,3.7905,3.802,3.8082,3.8128,3.8143,3.8186,3.8163,3.8143,3.8178,3.8178,3.8177,3.8184,3.8185,3.8166,3.8166,3.8166,0,3.7183,3.7278,3.7356,3.7416,3.7465,3.7539,3.7589,3.7645,3.7757,3.7789,3.7802,3.795,3.8014,3.8097,3.8101,3.8135,3.8152,3.8151,3.8171,3.8172,3.8173,3.818,3.8182,3.8163,3.8163,3.8163,3.8164,0,3.7225,3.729,3.7317,3.7425,3.7477,3.7531,3.7618,3.7661,3.7707,3.7767,3.7843,3.7923,3.801,3.8033,3.8078,3.8122,3.8128,3.8155,3.8177,3.8168,3.8176,3.8179,3.8158,3.8159,3.816,3.8161,0,0,3.7168,3.7319,3.7328,3.7378,3.7489,3.754,3.7598,3.7683,3.7719,3.7794,3.7845,3.7941,3.7967,3.8019,3.8072,3.8102,3.8111,3.8126,3.813,3.8121,3.8166,3.8145,3.8147,3.8139,3.814,3.814,3.8159,0,3.7176,3.7283,3.7356,3.7435,3.7496,3.7568,3.7618,3.7691,3.7749,3.7808,3.7872,3.7939,3.7968,3.8001,3.8034,3.8102,3.8121,3.8102,3.8187,3.8189,3.8164,3.8151,3.813,3.8143,3.8162,3.8163,3.8163,0,3.7199,3.7273,3.7358,3.7463,3.7492,3.7536,3.7621,3.7677,3.7761,3.7801,3.786,3.7914,3.7977,3.7994,3.8083,3.8068,3.8107,3.8146,3.8149,3.816,3.8176,3.8163,3.8149,3.8151,3.8169,3.8169,3.8168,0,3.715,3.7271,3.7338,3.7378,3.7502,3.7532,3.7584,3.7669,3.7716,3.779,3.7822,3.7901,3.7945,3.8006,3.808,3.8084,3.8162,3.8184,3.8197,3.8195,3.821,3.8208,3.8203,3.8233,3.8233,3.8233,3.8233,0,3.7152,3.7201,3.7318,3.7359,3.7417,3.75,3.7554,3.7613,3.7688,3.7742,3.7808,3.7856,3.7951,3.8011,3.8069,3.8135,3.8154,3.8188,3.8203,3.8183,3.8178,3.821,3.8211,3.8234,3.8234,3.8234,3.8234,0,3.7107,3.7187,3.7265,3.7376,3.7405,3.7443,3.7538,3.7581,3.7642,3.771,3.773,3.7827,3.7901,3.7981,3.8082,3.8121,3.8184,3.8205,3.8156,3.8165,3.8174,3.8172,3.8189,3.8196,3.822,3.822,3.8219,0,3.7103,3.7143,3.7259,3.73,3.7352,3.7417,3.7466,3.7549,3.7597,3.7697,3.7728,3.7807,3.7876,3.7992,3.807,3.8148,3.8172,3.8173,3.8184,3.8163,3.8173,3.817,3.8175,3.8169,3.8168,3.8168,3.8167,0,3.7088,3.7126,3.7194,3.7277,3.7334,3.7402,3.7474,3.7503,3.76,3.7651,3.7729,3.7782,3.7886,3.7965,3.8052,3.8107,3.8153,3.8163,3.817,3.815,3.8121,3.8138,3.8147,3.8162,3.8163,3.8163,3.8163,3.8164,3.7064,3.7104,3.7192,3.7266,3.7329,3.7394,3.744,3.7508,3.7574,3.7666,3.7711,3.7789,3.7873,3.7996,3.8049,3.8111,3.8125,3.8135,3.8138,3.8139,3.8135,3.811,3.8127,3.8127,3.8127,3.8128,3.8128,0,3.7054,3.7114,3.7182,3.728,3.7338,3.7378,3.7459,3.7505,3.7573,3.7648,3.7714,3.7804,3.7881,3.7966,3.8048,3.8081,3.8105,3.81,3.8099,3.8111,3.8117,3.8103,3.808,3.808,3.808,3.808,3.808,3.808,3.7055,3.7124,3.7172,3.7273,3.7334,3.7411,3.7454,3.7515,3.7575,3.7673,3.7737,3.7793,3.7872,3.7961,3.8033,3.8056,3.8083,3.8073,3.8102,3.8106,3.811,3.8114,3.8101,3.8078,3.8078,3.8091,3.8091,3.8091]}]]